Date,TemperatureHighF,TemperatureAvgF,TemperatureLowF,DewpointHighF,DewpointAvgF,DewpointLowF,HumidityHigh,HumidityAvg,HumidityLow,PressureMaxIn,PressureMinIn,WindSpeedMaxMPH,WindSpeedAvgMPH,GustSpeedMaxMPH,PrecipitationSumIn
2014-1-1,15.4,11.3,8.8,-3.1,-8.0,-11.1,47,41,30,30.47,30.33,14,6,17,0.00
2014-1-2,15.2,10.5,0.9,-1.9,-8.3,-15.1,49,42,37,30.39,30.21,20,12,26,0.00
2014-1-3,18.9,7.0,-6.0,-3.3,-14.9,-21.4,46,36,25,30.47,30.12,17,-79,21,0.00
2014-1-4,32.6,20.3,11.5,23.7,-2.9,-14.7,82,36,29,30.12,29.88,21,-555,26,0.00
2014-1-5,29.9,24.5,16.8,24.7,17.1,7.7,84,73,53,30.12,29.71,17,-51,24,0.00
2014-1-6,16.6,4.9,-14.2,7.5,-4.6,-22.8,67,64,61,30.12,29.74,14,8,26,0.00
2014-1-7,6.7,-5.1,-14.8,-2.9,-14.1,-23.5,64,64,64,30.36,30.12,17,11,23,0.00
2014-1-8,26.6,7.5,-2.6,2.2,-7.9,-18.4,64,51,23,30.59,30.36,10,5,14,0.00
2014-1-9,30.2,7.2,-16.1,12.2,-10.8,-31.2,65,44,23,30.65,30.30,12,3,15,0.00
2014-1-10,40.5,32.5,22.2,36.6,24.7,12.7,91,73,46,30.36,29.68,16,9,26,0.29
2014-1-11,43.3,37.9,32.4,43.3,33.3,21.3,100,84,61,29.68,29.35,14,7,20,0.12
2014-1-12,42.3,35.4,32.2,24.7,19.4,16.2,73,53,36,29.97,29.68,22,9,32,0.00
2014-1-13,44.5,39.3,33.4,28.1,22.1,18.6,78,50,40,29.77,29.53,11,7,17,0.00
2014-1-14,42.9,33.0,23.7,27.7,17.2,7.9,87,55,29,29.83,29.68,19,7,26,0.00
2014-1-15,30.6,25.0,19.1,17.4,6.1,0.6,66,44,32,30.03,29.71,21,8,27,0.00
2014-1-16,27.3,22.5,17.6,19.8,8.9,0.2,75,56,44,29.97,29.65,19,12,27,0.00
2014-1-17,35.2,26.4,19.1,21.3,11.1,3.6,75,53,33,30.00,29.65,11,6,20,0.00
2014-1-18,28.0,19.1,13.4,6.6,3.5,0.0,63,51,36,30.00,29.88,14,7,16,0.00
2014-1-19,29.5,22.6,11.7,17.1,9.0,1.8,71,56,43,29.88,29.56,21,10,31,0.00
2014-1-20,29.8,19.8,6.1,24.1,4.7,-7.0,80,53,32,30.21,29.56,15,7,20,0.00
2014-1-21,13.8,3.6,-7.3,0.0,-14.9,-33.0,54,43,27,30.30,30.18,11,5,15,0.00
2014-1-22,13.3,3.1,-9.7,-14.5,-23.5,-34.7,27,27,27,30.27,29.94,13,6,18,0.00
2014-1-23,18.9,7.5,-8.1,-4.7,-18.9,-33.9,38,28,25,30.50,30.00,12,4,17,0.00
2014-1-24,18.7,7.9,-8.0,4.2,-17.1,-33.8,53,31,26,30.50,29.53,25,15,35,0.00
2014-1-25,25.4,17.0,1.6,18.0,-1.3,-21.5,78,46,24,29.83,29.29,22,10,29,0.00
2014-1-26,24.2,12.4,0.1,11.1,-6.4,-22.8,67,43,32,29.85,29.41,16,8,22,0.00
2014-1-27,15.8,8.8,3.6,4.0,-2.6,-7.5,63,59,58,30.00,29.50,10,6,15,0.00
2014-1-28,60.0,6.1,-2.7,58.0,-19.8,-27.2,98,29,26,30.33,29.92,16,10,24,0.00
2014-1-29,22.5,9.5,-2.6,-3.0,-14.4,-27.1,38,32,29,30.21,30.06,18,10,25,0.00
2014-1-30,28.6,19.8,10.9,20.6,-1.7,-9.7,72,39,29,30.15,29.77,25,14,33,0.00
2014-1-31,38.3,28.0,18.5,21.3,10.6,2.8,74,49,30,30.21,29.85,12,3,18,0.00
2014-2-1,31.4,24.8,19.8,19.4,15.1,6.5,79,67,54,30.21,29.85,8,4,11,0.00
2014-2-2,37.4,21.1,0.4,15.7,5.7,-13.9,79,54,24,30.33,30.03,5,2,9,0.00
2014-2-3,46.5,9.9,-11.5,6.9,-14.0,-28.1,56,35,18,30.45,30.30,4,1,4,0.00
2014-2-4,46.2,15.7,0.9,13.4,-8.4,-26.1,61,34,21,30.53,30.24,8,3,10,0.00
2014-2-5,24.7,17.2,0.4,14.8,1.9,-20.3,76,53,29,30.42,30.06,20,9,27,0.00
2014-2-6,25.9,11.6,1.6,3.7,-9.1,-19.3,49,38,34,30.45,30.24,14,6,18,0.00
2014-2-7,18.1,7.7,-1.2,-4.8,-12.8,-20.2,40,38,33,30.33,30.24,15,9,22,0.00
2014-2-8,29.2,11.3,-2.8,3.9,-8.1,-22.2,61,42,28,30.39,30.21,11,5,14,0.00
2014-2-9,39.4,20.0,11.8,10.4,1.2,-5.6,70,47,21,30.21,30.06,6,3,10,0.00
2014-2-11,60.0,2.6,-8.4,58.0,-25.9,-35.6,98,25,22,30.50,29.92,10,2,18,0.00
2014-2-12,33.7,13.1,-13.2,-3.1,-15.7,-39.9,46,26,20,30.50,30.12,10,4,11,0.00
2014-2-13,43.1,27.1,18.1,4.9,-0.4,-6.1,44,32,18,30.15,29.53,13,6,18,0.00
2014-2-14,35.7,25.3,17.3,18.2,7.6,1.2,74,48,30,29.88,29.50,8,4,13,0.00
2014-2-15,32.1,13.4,-2.1,3.3,-9.7,-17.2,54,37,20,30.12,29.88,9,3,13,0.00
2014-2-16,37.0,15.4,-6.1,7.9,-4.0,-22.4,61,42,24,30.45,30.00,11,4,13,0.00
2014-2-17,23.4,10.3,-9.0,11.7,-7.5,-25.1,72,46,22,30.45,29.65,18,7,27,0.00
2014-2-18,41.8,29.3,13.8,17.2,9.8,2.8,72,46,28,30.00,29.65,18,8,28,0.04
2014-2-19,52.9,38.8,26.6,25.2,16.3,11.1,72,42,24,30.09,29.65,12,5,14,0.00
2014-2-20,42.2,35.3,31.3,42.2,24.1,12.4,100,66,35,30.12,29.41,18,8,23,0.50
2014-2-21,45.3,35.3,28.8,45.3,15.6,0.6,100,46,28,29.77,29.38,27,18,38,0.00
2014-2-22,39.3,30.2,23.9,8.9,2.2,-2.8,41,30,21,30.03,29.77,18,9,27,0.00
2014-2-23,33.8,24.1,17.8,5.3,3.0,-0.8,53,41,28,30.15,30.00,10,6,17,0.00
2014-2-24,27.4,19.6,12.5,3.9,0.6,-4.8,57,43,31,30.24,30.09,9,5,17,0.00
2014-2-25,30.7,16.5,7.4,5.0,-2.7,-9.1,60,42,30,30.24,30.06,13,5,20,0.00
2014-2-26,22.7,10.5,-0.3,-3.5,-11.3,-16.2,46,37,25,30.18,29.65,19,8,25,0.00
2014-2-27,19.1,7.2,-11.1,-9.4,-17.9,-38.0,35,30,23,30.27,29.56,16,7,26,0.00
2014-2-28,22.4,6.2,-14.4,-2.6,-20.9,-40.9,43,27,22,30.42,30.12,14,6,20,0.00
2014-3-1,31.8,21.2,11.3,15.0,5.0,-2.5,76,51,31,30.39,30.12,11,5,14,0.00
2014-3-2,31.7,10.9,-5.9,3.5,-10.3,-33.5,66,42,20,30.45,30.36,12,5,14,0.00
2014-3-3,28.3,3.5,-14.8,-6.9,-25.9,-41.2,25,23,21,30.50,30.42,5,2,6,0.00
2014-3-4,27.7,14.3,-0.9,-5.3,-14.4,-29.2,37,26,21,30.45,30.24,12,4,13,0.00
2014-3-5,30.2,15.7,2.7,2.4,-5.1,-13.0,53,39,26,30.59,30.30,11,5,13,0.00
2014-3-6,45.1,18.8,-0.8,3.3,-6.2,-16.3,47,35,17,30.62,30.21,13,4,15,0.00
2014-3-7,51.6,31.9,8.6,14.2,4.5,-7.1,65,33,19,30.24,29.88,11,5,14,0.00
2014-3-8,39.3,29.9,15.9,23.2,12.4,5.0,77,49,32,30.24,29.91,15,7,20,0.00
2014-3-9,38.3,26.7,10.9,20.1,7.5,-2.1,68,45,29,30.27,29.85,18,9,25,0.00
2014-3-10,58.3,43.2,34.9,23.9,21.6,19.0,58,44,22,29.85,29.53,15,7,21,0.00
2014-3-11,58.0,41.5,33.5,32.1,24.5,19.0,84,53,25,29.80,29.65,10,3,14,0.00
2014-3-12,35.8,22.5,2.6,27.5,8.0,-18.9,86,56,33,30.09,29.74,28,13,38,0.00
2014-3-13,33.0,16.4,-1.6,1.8,-11.0,-22.7,40,29,20,30.18,29.97,13,6,17,0.00
2014-3-14,52.5,38.9,21.9,20.4,14.1,1.9,50,38,21,29.97,29.53,19,10,27,0.00
2014-3-15,39.7,34.1,20.1,22.2,10.1,-2.7,57,38,21,30.39,29.74,13,-194,17,0.00
2014-3-16,29.6,16.8,8.6,-0.2,-5.4,-8.9,44,37,23,30.53,30.30,14,9,24,0.00
2014-3-17,40.9,21.6,6.3,2.3,-6.2,-12.0,42,31,18,30.30,29.94,10,5,13,0.00
2014-3-18,52.5,36.0,22.8,19.0,11.9,2.1,52,38,24,30.06,29.88,10,5,13,0.00
2014-3-19,44.9,38.5,33.6,40.0,28.4,16.8,92,68,45,29.94,29.59,13,-530,14,0.21
2014-3-20,40.1,34.3,28.5,27.0,16.1,10.0,74,48,31,30.09,29.83,10,-554,16,0.00
2014-3-21,46.9,34.4,22.3,26.9,14.0,8.4,76,46,22,30.15,29.74,10,-288,15,0.08
2014-3-22,43.0,34.1,22.6,32.0,19.6,-1.2,96,58,34,30.36,29.71,8,-863,12,0.17
2014-3-23,31.2,20.9,12.1,0.2,-4.7,-9.3,42,32,23,30.47,30.36,14,-73,16,0.00
2014-3-24,35.0,22.7,12.0,6.7,-0.7,-5.3,62,36,24,30.45,30.12,12,5,16,0.00
2014-3-25,36.4,25.3,15.9,15.2,3.2,-6.2,67,39,22,30.24,29.94,13,-8,19,0.00
2014-3-26,36.0,23.5,9.3,6.6,-2.2,-7.8,67,34,19,30.39,30.18,10,-4,14,0.00
2014-3-27,41.6,34.6,28.9,32.4,16.5,5.9,75,48,32,30.21,29.65,14,-297,20,0.12
2014-3-28,48.7,42.2,33.8,41.5,29.1,20.9,81,60,41,30.24,29.53,16,8,24,0.04
2014-3-29,37.5,33.5,29.7,24.3,19.7,14.9,70,57,41,30.27,30.21,18,9,24,0.00
2014-3-30,52.6,37.3,25.5,19.9,11.5,2.4,71,38,18,30.33,30.12,9,0,13,0.00
2014-3-31,63.4,46.9,29.5,19.1,14.7,10.7,49,29,16,30.24,29.94,14,4,20,0.00
2014-4-1,58.8,44.6,33.8,30.0,18.7,10.1,45,36,24,30.06,29.71,16,-40,24,0.00
2014-4-2,57.3,41.5,27.2,18.4,14.4,10.0,56,36,17,30.24,30.06,6,3,9,0.00
2014-4-3,41.1,35.2,32.0,20.9,16.1,10.1,57,46,37,30.24,29.88,18,-89,22,0.05
2014-4-4,49.0,38.6,34.5,45.3,31.9,20.9,100,78,50,29.88,29.44,14,-30,26,0.16
2014-4-5,52.8,38.5,28.6,22.3,11.8,3.5,60,35,18,30.30,29.74,12,5,20,0.00
2014-4-6,63.5,44.9,26.1,16.5,12.2,4.5,58,30,15,30.30,30.09,10,4,15,0.00
2014-4-7,57.7,42.9,28.9,32.5,17.1,10.5,73,38,17,30.12,29.59,11,4,15,0.00
2014-4-8,66.3,49.2,35.8,25.1,18.8,11.9,59,34,15,29.91,29.59,8,4,15,0.00
2014-4-9,63.2,47.7,29.8,21.3,14.6,8.9,49,29,14,30.09,29.88,10,4,16,0.00
2014-4-10,69.5,55.5,46.8,27.7,22.4,17.7,39,28,15,29.94,29.65,22,10,30,0.00
2014-4-11,71.2,53.0,32.4,27.4,17.3,11.3,58,28,13,30.06,29.88,11,3,18,0.00
2014-4-12,73.5,52.9,37.1,44.0,24.1,14.9,83,39,13,30.18,29.83,25,6,33,0.25
2014-4-13,74.5,60.8,49.1,53.7,43.4,39.0,83,56,28,29.97,29.59,15,-168,21,0.21
2014-4-14,66.2,51.4,28.0,56.4,34.0,18.4,91,54,35,29.88,29.35,20,-151,28,0.08
2014-4-15,38.9,29.2,22.8,22.2,8.4,-2.8,78,45,23,30.30,29.83,14,7,19,0.00
2014-4-16,47.7,34.7,20.5,11.7,7.0,2.3,62,34,17,30.50,30.27,14,-256,20,0.00
2014-4-17,66.4,48.1,30.4,23.6,15.2,8.5,52,29,15,30.42,30.21,16,-642,25,0.00
2014-4-18,66.9,52.2,38.5,40.7,26.5,15.6,76,41,16,30.39,30.24,10,-316,13,0.04
2014-4-19,62.6,45.8,29.2,27.5,18.1,9.7,85,40,16,30.53,30.33,11,-129,16,0.00
2014-4-20,77.2,55.6,33.6,22.6,18.3,8.7,57,28,13,30.39,30.09,11,-238,15,0.00
2014-4-21,81.9,64.6,49.8,52.0,26.0,11.7,83,27,12,30.09,29.74,11,-705,12,0.13
2014-4-22,57.5,48.3,37.9,54.8,28.9,16.5,91,50,27,30.00,29.68,17,-421,23,0.08
2014-4-23,60.1,45.1,33.3,21.6,13.4,3.2,60,32,14,30.18,30.00,10,-294,15,0.00
2014-4-24,62.3,47.7,33.6,14.7,8.5,4.4,40,21,14,30.21,29.88,15,-658,20,0.00
2014-4-25,57.2,46.6,41.7,34.9,21.0,6.4,72,40,19,29.91,29.71,8,-523,12,0.17
2014-4-26,55.0,46.7,40.0,32.3,23.0,16.4,70,41,24,30.15,29.80,15,-378,18,0.00
2014-4-27,58.7,44.7,29.5,27.1,17.7,11.7,79,37,17,30.27,30.12,14,-650,17,0.00
2014-4-28,57.2,49.1,37.6,23.0,18.4,12.2,52,31,17,30.15,29.83,17,-872,23,0.00
2014-4-29,76.3,59.0,46.4,50.1,35.4,18.5,97,48,13,29.85,29.56,12,-819,15,0.66
2014-4-30,71.0,60.0,52.7,48.6,40.2,29.9,78,51,23,29.83,29.68,0,-999,0,0.00
2014-5-1,55.0,47.7,41.7,41.7,30.6,21.0,87,53,31,29.77,29.71,0,-999,0,0.12
2014-5-2,55.0,48.6,44.2,41.6,36.7,29.7,87,65,38,29.80,29.71,0,-999,0,0.05
2014-5-3,62.9,50.4,40.6,42.7,33.3,20.1,87,56,24,29.85,29.59,12,-796,13,0.12
2014-5-4,58.7,48.6,38.5,32.4,21.0,9.8,67,38,17,30.12,29.83,14,-670,22,0.00
2014-5-5,66.1,46.8,34.7,31.0,23.5,15.1,68,43,16,30.15,29.94,8,-913,8,0.00
2014-5-6,66.2,57.6,35.0,39.4,21.3,16.1,78,27,15,30.15,30.06,11,-594,12,0.00
2014-5-7,64.4,52.0,40.5,45.7,36.4,19.7,81,57,34,30.18,29.91,16,-582,23,0.75
2014-5-8,87.1,68.1,48.5,47.0,43.5,40.4,84,48,20,30.00,29.62,12,-406,16,0.00
2014-5-9,76.2,71.1,60.4,50.1,42.1,33.1,51,36,24,29.71,29.47,23,-179,33,0.00
2014-5-10,73.0,61.2,47.7,34.5,24.8,14.6,52,28,14,30.00,29.71,10,-554,18,0.04
2014-5-11,83.9,65.1,41.4,40.4,28.2,20.7,74,30,11,30.12,29.83,13,-445,18,0.00
2014-5-12,69.7,66.3,63.4,62.6,54.4,41.0,94,68,36,29.88,29.77,11,-633,13,1.08
2014-5-13,86.0,70.3,58.9,64.4,56.0,44.2,93,64,28,29.91,29.71,18,8,24,0.91
2014-5-14,69.7,56.6,46.3,46.7,39.1,30.1,73,54,25,30.03,29.85,12,-6,16,0.21
2014-5-15,52.0,46.5,40.4,43.4,38.0,23.4,95,73,50,29.88,29.56,16,-584,21,0.87
2014-5-16,59.1,45.0,35.1,29.0,24.0,19.5,74,46,24,29.85,29.80,6,-698,8,0.00
2014-5-17,61.4,48.8,36.6,31.8,23.1,12.9,63,39,17,30.03,29.83,10,-335,14,0.00
2014-5-18,72.1,56.8,41.9,27.7,21.2,14.8,56,28,14,30.09,30.00,11,-34,17,0.00
2014-5-19,76.0,61.9,47.1,26.9,22.5,16.3,44,24,13,30.21,30.03,12,-425,15,0.00
2014-5-20,80.0,63.8,53.1,49.4,36.3,23.8,61,38,21,30.15,29.65,15,-699,17,0.12
2014-5-21,86.4,73.4,60.0,61.3,44.9,31.3,97,41,16,29.74,29.59,6,-303,9,1.96
2014-5-22,75.8,63.4,54.4,48.3,36.3,24.2,74,40,17,29.97,29.71,14,-407,20,0.00
2014-5-23,75.1,59.3,46.1,40.4,31.9,27.7,62,38,18,30.09,29.94,9,-508,12,0.00
2014-5-24,84.3,66.7,47.5,49.0,32.4,19.7,78,37,11,30.15,30.03,5,-559,9,0.00
2014-5-25,88.6,71.1,50.5,50.4,33.8,22.2,86,34,10,30.09,29.91,9,-308,13,0.00
2014-5-26,88.0,73.8,56.7,49.1,37.6,28.0,65,31,13,29.97,29.71,13,-14,17,0.00
2014-5-27,87.3,72.3,65.5,64.7,56.7,46.9,85,61,25,29.77,29.65,15,3,22,0.87
2014-5-28,77.9,64.2,54.0,66.0,47.0,35.5,93,57,25,30.03,29.71,14,-581,17,0.00
2014-5-29,81.3,65.2,47.7,51.0,38.9,31.4,87,45,17,30.06,29.94,10,-458,12,0.00
2014-5-30,90.0,71.1,50.2,53.6,35.9,22.4,85,36,10,30.12,29.94,6,-390,8,0.00
2014-5-31,90.0,73.2,55.6,43.1,32.8,24.8,55,26,10,30.15,29.97,8,-339,11,0.00
2014-6-1,89.2,73.3,55.1,37.5,30.7,24.0,37,22,10,30.12,29.80,14,-429,21,0.00
2014-6-2,87.1,74.7,67.8,66.1,49.3,32.6,82,43,22,29.85,29.59,26,10,38,0.50
2014-6-3,80.5,74.1,68.7,63.8,44.9,24.2,83,43,15,29.80,29.62,12,-120,18,0.00
2014-6-4,73.9,63.3,56.5,53.6,44.2,37.6,81,51,30,29.83,29.65,7,2,7,0.04
2014-6-5,81.2,65.8,48.4,55.7,29.5,18.9,90,30,12,29.91,29.68,10,-64,13,0.00
2014-6-6,87.1,67.5,47.1,41.0,30.0,19.8,73,30,11,29.94,29.85,7,-320,11,0.00
2014-6-7,89.4,72.9,52.7,43.3,31.5,22.2,67,28,10,30.00,29.77,11,-170,17,0.00
2014-6-8,81.9,68.7,60.3,46.6,36.2,27.3,61,32,14,29.88,29.74,16,-20,20,0.00
2014-6-9,90.1,70.1,56.7,50.9,38.5,23.2,80,38,10,29.91,29.77,11,-300,13,0.00
2014-6-10,83.7,68.6,55.3,43.5,34.6,27.6,61,31,14,29.88,29.77,10,-296,14,0.00
2014-6-11,82.3,68.2,59.2,61.0,50.8,27.8,84,57,23,29.80,29.53,11,-133,14,0.37
2014-6-12,84.1,71.8,64.8,66.4,54.3,43.0,97,60,26,29.68,29.53,9,-69,12,0.00
2014-6-13,70.9,61.2,47.4,54.3,35.6,26.4,88,41,20,29.91,29.62,10,-223,13,0.00
2014-6-14,81.4,61.8,42.1,48.1,34.8,22.3,100,47,12,30.12,29.91,8,-315,10,0.00
2014-6-15,83.2,70.0,52.7,45.6,37.7,27.3,75,36,14,30.06,29.80,19,5,24,0.00
2014-6-16,95.1,80.9,66.2,57.6,42.9,30.3,63,31,11,29.88,29.80,13,4,17,0.00
2014-6-17,92.6,78.2,65.8,58.5,48.9,36.3,59,38,14,29.85,29.62,19,7,30,0.00
2014-6-18,79.3,70.0,65.5,64.7,57.4,48.7,82,66,34,29.91,29.77,13,4,18,0.21
2014-6-19,83.7,73.7,59.3,58.0,41.3,36.1,98,32,22,30.12,29.92,10,6,18,0.04
2014-6-20,69.8,63.1,56.8,51.9,40.7,34.2,78,46,29,30.03,29.88,9,4,13,0.04
2014-6-21,88.3,71.6,58.1,53.4,41.9,27.6,81,43,13,30.03,29.77,6,2,12,0.00
2014-6-22,87.7,74.7,62.6,50.7,37.7,28.2,65,30,13,29.83,29.65,11,6,15,0.00
2014-6-23,81.7,71.4,61.2,65.9,48.5,32.6,81,46,26,29.83,29.71,9,5,15,0.13
2014-6-24,79.9,71.9,68.2,67.9,62.1,48.7,93,74,35,29.83,29.77,7,2,10,0.70
2014-6-25,75.3,68.7,61.5,66.2,56.9,47.0,100,69,38,30.09,29.77,9,-14,12,0.00
2014-6-26,90.4,71.2,55.0,57.8,46.3,36.8,96,48,18,30.15,29.97,7,3,9,0.00
2014-6-27,91.0,74.9,57.9,52.5,43.2,35.3,75,37,16,30.09,29.91,8,3,11,0.00
2014-6-28,92.2,76.7,62.3,63.7,50.5,40.1,76,44,18,30.09,29.91,12,5,19,0.00
2014-6-29,90.8,79.1,72.1,64.2,53.6,35.1,74,45,15,30.00,29.80,16,8,22,0.00
2014-6-30,90.2,79.8,72.8,64.9,55.8,45.3,76,47,23,29.88,29.65,13,8,19,0.00
2014-7-1,86.3,75.4,67.7,65.0,49.7,34.6,89,46,16,29.74,29.50,15,6,27,0.25
2014-7-2,82.9,72.4,65.0,56.0,42.8,32.5,68,37,18,29.88,29.65,11,-218,15,0.00
2014-7-3,78.4,64.2,51.8,54.9,42.8,30.9,82,51,20,30.12,29.88,9,-212,14,0.08
2014-7-4,85.4,67.4,51.3,54.8,36.3,19.2,86,41,11,30.30,30.12,10,-419,17,0.00
2014-7-5,83.7,70.7,56.1,41.6,32.1,22.2,58,28,11,30.21,29.97,13,-202,17,0.00
2014-7-6,84.5,75.6,60.1,62.6,43.3,35.7,71,34,20,29.94,29.62,14,8,23,0.13
2014-7-7,92.1,78.5,66.8,68.7,52.4,35.2,100,48,15,29.74,29.53,12,4,17,1.70
2014-7-8,82.0,70.6,64.4,63.6,49.2,35.7,92,50,20,29.68,29.50,9,4,17,0.75
2014-7-9,79.2,67.9,59.2,54.6,41.5,32.0,77,43,20,29.97,29.68,7,-134,10,0.00
2014-7-10,85.6,68.6,56.0,52.6,39.9,25.8,80,42,13,30.21,29.97,6,3,9,0.00
2014-7-11,86.2,71.7,54.5,55.9,42.2,28.4,81,42,13,30.21,30.03,9,3,12,0.00
2014-7-12,87.2,75.5,63.5,60.2,48.6,38.0,74,43,19,30.12,29.83,10,6,15,0.00
2014-7-13,89.3,78.6,66.5,66.7,49.7,36.3,82,43,17,29.91,29.77,18,4,26,0.33
2014-7-14,87.4,72.4,63.0,59.9,46.1,25.4,83,47,11,29.85,29.68,6,2,10,0.09
2014-7-15,76.1,64.9,56.8,56.8,44.5,30.9,87,52,22,29.85,29.65,7,2,13,0.08
2014-7-16,73.7,61.0,53.3,48.0,40.6,29.6,76,50,22,29.97,29.85,7,2,11,0.00
2014-7-17,84.5,67.1,49.9,53.6,37.3,23.5,88,42,12,30.09,29.97,6,2,10,0.00
2014-7-18,86.8,69.6,50.0,55.1,36.5,23.2,80,38,11,30.21,30.03,7,2,12,0.00
2014-7-19,89.6,71.2,56.4,53.2,43.3,32.9,72,42,14,30.09,29.94,6,2,10,0.00
2014-7-20,93.8,74.7,54.7,60.5,43.6,25.4,88,43,9,30.06,29.91,4,1,8,0.00
2014-7-21,90.6,76.9,62.9,55.5,45.0,32.8,76,37,13,30.06,29.94,8,2,11,0.00
2014-7-22,90.0,78.9,65.7,51.7,46.0,40.0,58,34,19,30.00,29.80,14,4,19,0.00
2014-7-23,79.7,69.6,57.4,63.7,43.9,34.3,74,41,21,30.18,29.83,11,5,15,0.00
2014-7-24,83.0,66.4,52.2,50.8,35.5,20.2,81,40,11,30.24,29.97,7,2,13,0.00
2014-7-25,82.6,66.5,51.0,52.3,38.8,26.8,77,42,14,30.09,29.85,8,2,13,0.00
2014-7-26,84.5,71.6,59.4,56.6,46.2,38.8,78,44,21,29.91,29.71,9,4,12,0.00
2014-7-27,88.6,71.0,61.2,64.9,55.6,41.5,93,62,21,29.80,29.62,24,4,31,0.37
2014-7-28,69.4,62.4,52.6,60.9,44.0,30.7,95,55,28,30.00,29.71,10,5,15,0.08
2014-7-29,77.8,61.9,49.6,55.4,42.8,35.2,88,54,23,29.97,29.88,8,2,14,0.04
2014-7-30,80.4,65.2,53.8,63.0,47.2,32.5,94,60,20,30.00,29.88,6,2,10,0.00
2014-7-31,83.9,66.5,52.3,59.8,43.4,35.4,79,48,19,30.00,29.91,9,2,22,0.26
2014-8-1,90.6,70.4,59.7,58.4,48.7,35.4,89,52,15,30.09,29.97,9,3,14,0.54
2014-8-2,91.0,71.0,54.0,61.5,45.0,30.6,90,50,12,30.21,30.00,4,1,7,0.00
2014-8-3,90.8,73.5,56.5,61.7,45.4,28.1,86,46,12,30.18,29.97,4,1,7,0.00
2014-8-4,90.8,72.2,60.9,61.0,49.2,38.2,90,50,17,30.15,30.00,11,2,17,0.00
2014-8-5,87.5,70.9,62.8,67.0,52.7,38.9,99,60,19,30.15,30.00,7,2,10,0.00
2014-8-6,85.4,69.9,58.0,61.2,43.3,22.3,89,49,12,30.18,29.97,6,2,11,0.00
2014-8-7,90.3,69.7,52.3,57.0,41.7,29.8,87,44,12,30.21,30.03,5,2,8,0.00
2014-8-8,85.5,67.8,53.1,56.7,39.0,27.8,80,42,13,30.18,30.06,7,2,10,0.00
2014-8-9,89.1,67.8,49.5,57.9,39.5,28.3,83,44,13,30.21,30.03,7,2,13,0.00
2014-8-10,93.0,75.5,56.7,57.1,43.4,31.2,74,37,12,30.21,29.94,7,2,11,0.00
2014-8-11,84.9,69.7,62.8,66.9,56.1,43.2,100,66,26,30.00,29.74,8,3,12,0.49
2014-8-12,83.4,67.7,60.1,64.4,55.0,41.5,100,69,24,29.85,29.65,8,3,13,0.42
2014-8-13,81.1,66.6,53.5,52.0,37.4,24.8,79,41,14,29.94,29.83,10,3,13,0.00
2014-8-14,75.9,61.6,47.7,45.4,30.0,17.8,77,36,13,30.03,29.91,9,4,15,0.00
2014-8-15,82.0,62.1,45.1,42.8,31.9,22.5,82,38,12,30.03,29.85,7,2,11,0.00
2014-8-16,83.6,67.7,53.0,59.9,41.7,35.5,73,42,20,29.88,29.77,10,4,15,0.00
2014-8-17,88.3,73.1,61.0,62.5,47.8,32.4,86,48,15,30.03,29.85,7,3,9,0.00
2014-8-18,90.5,72.3,59.5,57.7,45.3,36.5,77,44,16,30.00,29.80,6,2,8,0.00
2014-8-19,83.6,69.7,65.1,63.9,55.1,42.3,85,63,23,29.85,29.77,10,5,14,0.49
2014-8-20,88.0,72.9,64.2,67.3,55.1,40.1,97,60,22,30.00,29.77,8,3,13,0.00
2014-8-21,88.9,71.6,58.1,64.8,52.9,42.7,92,58,21,30.15,30.00,5,1,6,0.00
2014-8-22,90.8,74.2,63.7,65.9,54.4,42.6,88,55,20,30.15,30.00,6,2,8,0.00
2014-8-23,87.2,72.3,60.4,64.3,51.9,40.3,93,55,20,30.24,30.12,7,2,11,0.00
2014-8-24,85.8,72.7,61.0,65.5,52.6,41.7,94,54,23,30.27,30.15,6,3,10,0.00
2014-8-25,91.6,76.4,64.0,67.2,55.9,45.8,84,54,21,30.24,30.06,8,4,12,0.00
2014-8-26,95.0,76.4,68.4,67.1,57.1,41.7,89,58,18,30.15,30.03,12,3,19,0.00
2014-8-27,82.8,69.9,60.7,65.0,47.0,32.9,89,51,17,30.27,30.15,6,2,10,0.00
2014-8-28,81.6,65.5,51.1,52.0,36.6,21.6,81,43,12,30.36,30.12,7,2,10,0.00
2014-8-29,76.4,67.2,57.4,46.7,39.8,33.3,64,39,22,30.24,30.03,11,6,18,0.00
2014-8-30,84.0,74.9,68.4,62.2,51.0,40.5,71,44,29,30.06,29.88,15,7,24,0.21
2014-8-31,90.2,75.9,66.9,68.3,53.9,38.7,99,54,18,30.03,29.94,6,3,10,0.00
2014-9-1,84.6,73.4,63.6,66.6,58.5,47.8,93,63,30,29.97,29.77,16,5,20,0.38
2014-9-2,86.0,73.0,58.5,63.3,47.2,27.2,83,47,14,30.03,29.88,7,2,10,0.00
2014-9-3,90.5,70.6,54.5,57.0,43.8,29.8,83,46,13,30.18,30.03,6,2,9,0.00
2014-9-4,87.1,73.1,63.0,58.7,51.0,43.9,74,49,23,30.15,30.03,12,5,17,0.00
2014-9-5,93.0,79.3,68.7,66.5,55.7,47.2,78,47,23,30.12,29.88,12,5,18,0.08
2014-9-6,80.5,66.5,53.0,59.6,40.2,19.7,79,45,12,30.27,30.09,6,3,10,0.00
2014-9-7,83.7,65.7,47.7,54.5,35.0,21.5,79,40,11,30.39,30.24,5,0,7,0.00
2014-9-8,83.6,67.3,48.9,52.2,36.0,22.1,77,39,11,30.33,30.12,7,2,10,0.00
2014-9-9,83.8,68.9,55.9,60.8,42.6,28.2,80,46,14,30.18,30.00,8,2,12,0.00
2014-9-10,76.0,69.7,63.9,65.4,53.5,41.2,79,57,36,30.06,29.62,17,7,26,0.37
2014-9-11,67.6,55.8,51.0,47.4,34.1,25.3,65,45,26,30.39,29.74,9,4,17,0.04
2014-9-12,61.2,53.4,49.5,46.6,40.1,29.8,80,63,31,30.53,30.30,6,1,9,0.00
2014-9-13,64.4,50.7,40.0,46.7,33.6,17.3,90,58,18,30.47,30.24,8,2,10,0.50
2014-9-14,66.2,53.5,40.2,41.5,28.0,15.0,82,44,15,30.50,30.30,10,3,13,0.00
2014-9-15,71.8,53.3,42.8,47.8,36.9,22.9,88,58,17,30.33,30.12,6,1,8,0.13
2014-9-16,73.0,56.2,44.2,53.7,34.4,18.7,91,53,15,30.33,30.18,5,1,10,0.00
2014-9-17,75.3,55.1,37.8,40.6,28.0,18.0,82,44,13,30.21,30.06,6,1,10,0.00
2014-9-18,67.2,52.6,41.9,51.3,35.6,27.7,80,56,26,30.33,30.12,7,1,10,0.00
2014-9-19,74.8,54.9,35.6,46.1,29.7,20.7,80,46,15,30.42,30.12,8,3,13,0.00
2014-9-20,80.4,66.5,55.1,61.1,40.7,31.4,80,43,21,30.12,29.83,14,6,20,0.04
2014-9-21,66.0,64.8,62.5,59.4,58.5,51.1,84,80,66,29.88,29.71,8,6,12,0.16
2014-9-26,60.0,60.0,60.0,58.0,58.0,58.0,98,98,98,29.92,29.92,10,10,18,0.27
2014-10-1,60.0,60.0,60.0,58.0,58.0,58.0,98,98,98,29.92,29.92,10,10,18,0.00
2014-10-3,68.5,60.9,50.2,59.6,41.5,30.6,98,50,31,29.92,29.47,16,6,26,0.75
2014-10-4,52.2,45.1,41.4,39.0,27.7,15.4,74,53,27,29.74,29.65,13,5,25,0.17
2014-10-5,56.1,47.9,42.9,36.0,22.4,9.6,74,41,17,29.80,29.71,12,6,19,0.00
2014-10-6,67.1,53.4,47.5,42.6,26.8,15.8,76,40,15,29.77,29.59,13,6,23,0.12
2014-10-7,68.9,53.5,43.5,47.7,29.9,16.3,88,47,15,29.80,29.65,13,6,21,0.09
2014-10-8,63.3,52.4,44.4,46.7,22.3,7.6,86,36,15,30.03,29.77,9,3,23,0.00
2014-10-9,63.5,46.4,36.0,31.1,19.8,13.5,71,38,16,30.15,30.00,7,2,12,0.00
2014-10-14,69.7,64.7,58.5,58.9,49.3,40.5,98,60,35,29.92,29.68,12,6,20,0.33
2014-10-15,73.0,60.9,53.6,55.7,42.1,26.2,89,55,19,29.85,29.83,7,2,11,0.00
2014-10-16,62.9,56.2,49.1,56.1,44.2,35.0,98,66,38,29.80,29.80,5,1,8,0.00
2014-10-17,65.5,56.2,48.2,49.9,38.2,25.0,84,54,24,29.62,29.62,12,5,19,0.00
2014-10-18,49.1,44.8,36.0,37.8,25.2,16.3,71,47,31,29.91,29.91,9,5,14,0.09
2014-10-19,58.5,42.8,26.6,29.8,17.0,11.1,76,40,17,0.00,40.00,7,3,10,0.00
2014-10-20,60.6,52.3,47.3,45.8,31.2,19.1,77,46,30,29.91,29.88,9,4,13,0.04
2014-10-21,48.9,45.9,37.8,40.0,26.9,17.9,76,48,33,30.24,30.21,12,5,15,0.04
2014-10-22,54.5,44.6,34.4,27.6,22.4,18.2,65,42,26,0.00,40.00,6,3,9,0.00
2014-10-23,64.3,42.1,27.9,43.6,23.0,10.2,84,55,15,0.00,40.00,5,1,8,0.00
2014-10-24,66.4,47.7,34.6,40.3,28.9,20.3,80,52,17,0.00,40.00,7,2,10,0.00
2014-10-25,72.1,56.2,46.1,44.2,27.3,5.2,84,41,13,0.00,40.00,8,3,22,0.00
2014-10-26,66.1,49.6,38.4,18.8,13.0,4.2,39,24,14,0.00,40.00,7,1,11,0.00
2014-10-27,74.0,46.8,30.2,28.3,18.8,13.0,72,38,13,30.03,30.03,13,4,19,0.00